Location: Shrewton
(51.1833°N, 1.9000°W)
Time: 01:12:37
(UTC+00:00)

Daily predictions for brighter satellites

Satellite Brightness Start Highest point End
(mag) Time Altitude Azimuth Time Altitude Azimuth Time Altitude Azimuth
Cosmos 2227 Rocket 2.3 00:01:18 10° NW 00:06:55 62° WSW 00:10:10 25° S
STARLINK-1338 3.6 00:03:05 10° W 00:07:04 78° NNW 00:11:04 10° ENE
Landsat 4 3.7 00:04:15 10° NNE 00:07:58 65° ESE 00:09:24 34° S
STARLINK-1216 4.3 00:04:19 10° W 00:08:04 34° SW 00:08:47 32° SSW
Cosmos 1763 Rocket 3.9 00:05:57 26° SSE 00:08:27 46° ESE 00:13:17 10° NE
STARLINK-52 3.5 00:07:08 10° W 00:10:20 60° N 00:13:30 10° E
Cosmos 2084 Rocket 3.7 00:06:30 10° NW 00:10:58 74° NE 00:14:58 13° SE
Cosmos 1356 Rocket 3.6 00:07:46 10° NNW 00:11:59 64° W 00:13:55 30° S
STARLINK-1237 4.4 00:09:19 10° W 00:13:01 32° SW 00:13:34 31° SSW
SL-14 R/B 3.7 00:11:48 26° SW 00:13:40 51° WNW 00:17:27 10° N
STARLINK-1371 3.6 00:11:27 10° W 00:15:25 75° N 00:19:23 10° ENE
STARLINK-1202 4.4 00:14:20 10° W 00:17:59 30° SW 00:18:21 29° SSW
SL-16 R/B 4.2 00:13:00 10° ESE 00:18:12 30° NE 00:23:26 10° N
STARLINK-1341 3.7 00:15:50 10° W 00:19:48 74° N 00:23:48 10° ENE
Nadezhda 1 Rocket 4.0 00:15:08 10° NNW 00:21:23 80° W 00:25:27 24° S
CZ-4 R/B 4.1 00:17:45 10° NNE 00:22:25 54° E 00:24:50 26° SSE
Cosmos 1300 3.8 00:19:15 10° NNW 00:22:42 32° W 00:24:09 24° SW
STARLINK-1374 3.7 00:20:11 10° W 00:24:10 72° N 00:28:11 10° ENE
STARLINK 1040 3.2 00:26:21 37° ESE 00:26:21 37° ESE 00:28:13 10° ENE
STARLINK-1444 2.3 00:23:49 10° WNW 00:25:59 64° NNE 00:26:52 30° E
STARLINK-1452 2.3 00:24:28 10° WNW 00:26:36 64° NNE 00:27:17 36° E
Cosmos 2285 Rocket 4.1 00:20:29 10° NNW 00:26:54 83° ENE 00:31:54 17° SSE
STARLINK-1392 2.3 00:25:16 10° WNW 00:27:22 64° NNE 00:27:26 63° NNE
STARLINK-1399 2.3 00:25:19 10° WNW 00:27:26 64° NNE 00:27:37 59° NE
STARLINK-1393 2.3 00:25:21 10° WNW 00:27:27 64° NNE 00:27:35 61° NE
STARLINK-1394 2.3 00:25:23 10° WNW 00:27:29 64° NNE 00:27:36 61° NE
STARLINK-1395 2.3 00:25:27 10° WNW 00:27:24 61° NNW 00:27:24 61° NNW
STARLINK-1397 2.3 00:25:25 10° WNW 00:27:32 64° NNE 00:27:44 59° NE
STARLINK-1396 2.3 00:25:26 10° WNW 00:27:32 64° NNE 00:27:42 61° NE
STARLINK-1414 2.3 00:25:27 10° WNW 00:27:33 64° NNE 00:27:36 63° NNE
STARLINK-1408 2.3 00:25:30 10° WNW 00:27:36 64° NNE 00:27:38 64° NNE
STARLINK-1404 2.3 00:25:31 10° WNW 00:27:38 64° NNE 00:27:49 59° NE
STARLINK-1416 2.3 00:25:32 10° WNW 00:27:38 64° NNE 00:27:44 63° NNE
STARLINK-1415 2.3 00:25:33 10° WNW 00:27:40 64° NNE 00:27:57 55° ENE
STARLINK-1406 2.3 00:25:36 10° WNW 00:27:42 64° NNE 00:27:42 64° NNE
STARLINK-1450 2.3 00:25:36 10° WNW 00:27:42 64° NNE 00:28:00 54° ENE
STARLINK-1401 2.3 00:25:36 10° WNW 00:27:43 64° NNE 00:28:00 54° ENE
STARLINK-1417 2.3 00:25:39 10° WNW 00:27:47 64° NNE 00:28:04 54° ENE
STARLINK-1402 2.3 00:25:41 10° WNW 00:27:48 64° NNE 00:28:05 55° ENE
STARLINK-1413 2.3 00:25:41 10° WNW 00:27:48 64° NNE 00:28:05 54° ENE
STARLINK-1419 2.3 00:25:42 10° WNW 00:27:48 64° NNE 00:28:00 59° NE
STARLINK-1422 2.3 00:25:47 10° WNW 00:27:54 64° NNE 00:28:09 56° ENE
STARLINK-1453 2.3 00:25:48 10° WNW 00:27:56 65° NNE 00:28:18 50° ENE
STARLINK-1398 2.3 00:25:49 10° WNW 00:27:57 65° N 00:28:28 43° ENE
STARLINK-1420 2.3 00:25:51 10° WNW 00:27:58 65° N 00:28:17 53° ENE
STARLINK-1440 2.3 00:25:54 10° WNW 00:28:00 65° N 00:28:22 51° ENE
STARLINK-1460 2.3 00:25:54 10° WNW 00:28:01 65° NNE 00:28:21 52° ENE
STARLINK-1436 (VISORSAT) 2.3 00:25:54 10° WNW 00:28:02 65° NNE 00:28:34 42° ENE
STARLINK-1410 2.3 00:25:59 10° WNW 00:28:06 65° NNE 00:28:22 55° ENE
STARLINK-1423 2.3 00:25:59 10° WNW 00:28:06 65° NNE 00:28:16 60° NE
STARLINK-1421 2.3 00:25:59 10° WNW 00:28:06 65° NNE 00:28:16 60° NE
STARLINK-1400 2.3 00:25:58 10° WNW 00:28:06 65° NNE 00:28:24 54° ENE
STARLINK-1454 2.3 00:26:00 10° WNW 00:28:07 65° N 00:28:26 53° ENE
STARLINK-1458 2.3 00:26:03 10° WNW 00:28:10 65° NNE 00:28:24 57° NE
STARLINK-1445 2.3 00:26:05 10° WNW 00:28:13 65° NNE 00:28:35 50° ENE
STARLINK-1407 2.3 00:26:07 10° WNW 00:28:14 65° N 00:28:35 52° ENE
STARLINK-1405 2.3 00:26:09 10° WNW 00:28:09 63° N 00:28:09 63° N
STARLINK-1446 2.3 00:26:07 10° WNW 00:28:15 65° NNE 00:28:37 50° ENE
STARLINK-1370 2.3 00:26:09 10° WNW 00:28:17 65° NNE 00:28:37 52° ENE
STARLINK-1439 2.3 00:26:13 10° WNW 00:28:12 63° N 00:28:12 63° N
STARLINK-1456 2.3 00:26:11 10° WNW 00:28:19 65° NNE 00:28:33 57° NE
STARLINK-1457 2.3 00:26:11 10° WNW 00:28:19 65° NNE 00:28:33 57° NE
STARLINK-1451 2.3 00:26:12 10° WNW 00:28:19 65° NNE 00:28:33 57° NE
STARLINK-1409 2.3 00:26:12 10° WNW 00:28:19 65° NNE 00:28:33 57° NE
STARLINK-1447 2.3 00:26:12 10° WNW 00:28:20 65° NNE 00:28:41 52° ENE
STARLINK-1455 2.3 00:26:13 10° WNW 00:28:21 65° NNE 00:28:41 52° ENE
STARLINK-1437 2.3 00:26:14 10° WNW 00:28:21 65° NNE 00:28:38 55° ENE
STARLINK-1441 2.3 00:26:15 10° WNW 00:28:22 65° NNE 00:28:44 51° ENE
STARLINK-1339 3.8 00:24:27 10° W 00:28:26 71° N 00:32:24 10° ENE
STARLINK-1443 2.3 00:26:18 10° WNW 00:28:26 65° NNE 00:28:52 47° ENE
STARLINK-1351 2.3 00:26:20 10° WNW 00:28:27 65° NNE 00:28:49 51° ENE
STARLINK-1418 2.3 00:26:20 10° WNW 00:28:27 65° NNE 00:28:48 52° ENE
STARLINK-1403 2.3 00:26:20 10° WNW 00:28:28 65° NNE 00:28:52 49° ENE
STARLINK-1434 2.3 00:26:21 10° WNW 00:28:28 65° NNE 00:28:54 47° ENE
STARLINK-1442 2.3 00:26:21 10° WNW 00:28:29 65° NNE 00:28:50 51° ENE
STARLINK-1448 2.3 00:26:23 10° WNW 00:28:31 65° NNE 00:28:51 51° ENE
STARLINK-1433 2.3 00:26:23 10° WNW 00:28:31 65° NNE 00:28:51 52° ENE
STARLINK-1449 2.3 00:26:26 10° WNW 00:28:34 65° NNE 00:28:56 50° ENE
STARLINK-1438 2.3 00:26:29 10° WNW 00:28:36 65° NNE 00:28:49 58° NE
STARLINK-1411 2.3 00:26:36 10° WNW 00:28:43 65° NNE 00:29:01 54° ENE
STARLINK-1412 2.3 00:26:36 10° WNW 00:28:44 65° NNE 00:29:05 51° ENE
CZ-2D R/B 4.2 00:27:48 10° NE 00:30:59 16° E 00:34:08 10° SE
Cosmos-2242 3.6 00:27:31 10° N 00:31:41 50° ENE 00:34:23 20° SE
Meteor 2-10 Rocket 3.4 00:26:58 10° NNW 00:32:10 85° ENE 00:35:16 24° SSE
STARLINK-1377 3.8 00:28:52 10° W 00:32:52 70° N 00:36:52 10° ENE
USA 81 4.5 00:30:17 22° SSE 00:33:32 56° E 00:38:42 10° NNE
BREEZE-M R/B 3.2 00:28:34 10° WSW 00:35:38 65° S 00:39:09 10° E
STARLINK-42 4.1 00:36:26 27° SE 00:36:26 27° SE 00:38:47 10° E
USA 215 3.2 00:29:37 10° SE 00:36:08 64° SW 00:42:39 10° WNW
Cosmos 1626 Rocket 3.7 00:34:39 27° SSW 00:36:55 66° WNW 00:41:18 10° N
STARLINK-1353 3.8 00:33:12 10° W 00:37:12 69° N 00:41:13 10° ENE
Meteor 1-21 Rocket 4.4 00:34:27 24° S 00:37:58 71° E 00:43:46 10° NNE
STARLINK-60 2.8 00:35:13 10° WNW 00:38:25 88° N 00:41:37 10° ESE
FALCON 9 DEB 3.6 00:35:17 10° W 00:38:43 63° N 00:42:08 10° E
STARLINK-41 4.0 00:40:11 27° SE 00:40:11 27° SE 00:42:26 10° E
STARLINK-1375 3.8 00:37:34 10° W 00:41:35 68° N 00:45:35 10° ENE
STARLINK-1272 4.5 00:42:02 25° SE 00:42:02 25° SE 00:44:57 10° E
SeaSat 1 3.4 00:38:04 10° NNE 00:42:45 43° NW 00:47:21 10° WSW
Cosmos 540 Rocket 4.0 00:41:07 24° SSE 00:43:56 47° ESE 00:48:51 10° NE
STARLINK-1350 3.9 00:41:55 10° W 00:45:55 68° N 00:49:56 10° E
STARLINK-1307 4.4 00:46:48 27° SSE 00:47:08 27° SE 00:50:19 10° E
NOSS 7 (H) 4.2 00:46:44 29° WSW 00:48:06 71° NW 00:51:04 10° NE
Helios 1B rocket 2.4 00:44:07 10° NNE 00:48:17 84° ESE 00:50:24 28° SSW
SL-08 ROCKET BODY 4.5 00:45:02 23° SSW 00:48:50 68° WNW 00:54:41 10° N
STARLINK-1352 3.9 00:46:10 10° W 00:50:10 67° N 00:54:11 10° E
STARLINK-1290 4.3 00:50:11 27° SSE 00:50:38 28° SE 00:53:52 10° E
STARLINK-1368 3.9 00:50:47 10° W 00:54:47 67° N 00:58:48 10° E
Cosmos 1980 Rocket 2.6 00:51:50 23° S 00:55:09 52° ESE 01:00:39 10° NE
Uosat 12 SS-18 rocket 4.4 00:51:46 10° NW 00:55:54 45° SW 00:58:02 25° S
ERBS 3.9 00:53:19 10° W 00:55:10 20° WSW 00:55:10 20° WSW
Meteor 1-29 3.0 00:53:28 10° NNE 00:56:50 67° ESE 00:58:11 32° S
STARLINK-1317 4.2 00:56:33 29° S 00:57:33 34° SE 01:01:07 10° E
Cosmos 1626 4.3 00:55:23 11° WSW 00:57:46 18° WNW 01:00:22 10° NNW
Cosmos 468 Rocket 4.2 00:54:20 21° SW 00:57:47 65° WNW 01:02:55 10° NNE
Cosmos 1455 2.3 00:54:45 10° NNW 00:58:27 59° W 01:00:05 30° SSW
STARLINK-1369 3.9 00:55:13 10° W 00:59:13 66° N 01:03:14 10° E
STARLINK-55 3.2 01:00:33 37° SSW 01:01:18 46° SSE 01:04:24 10° ENE
STARLINK-1274 4.0 01:00:56 30° S 01:01:34 33° SE 01:04:47 10° E
Cosmos 1328 4.0 00:59:35 26° S 01:01:39 65° E 01:05:38 10° NNE
Cosmos 1812 Rocket 4.3 00:57:55 10° NNW 01:02:04 39° W 01:04:13 24° SW
STARLINK-43 3.2 01:00:05 19° WSW 01:02:34 75° SSE 01:06:16 10° ENE
STARLINK-1372 3.9 00:59:28 10° W 01:03:27 66° N 01:07:27 10° E
Cosmos 1937 Rocket 4.1 00:59:23 10° NW 01:04:20 42° WSW 01:07:10 23° SSW
STARLINK-1291 4.0 01:04:15 30° S 01:05:15 36° SSE 01:08:41 10° E
Cosmos 1745 Rocket 4.4 01:01:26 19° SW 01:05:42 52° WNW 01:11:43 10° N
Cosmos 2369 3.7 01:02:04 21° SSW 01:05:56 85° WNW 01:11:39 10° NNE
Lacrosse 4 Rocket 2.6 01:02:41 10° NW 01:06:13 25° WSW 01:07:20 22° SW
Cosmos 1703 3.2 01:05:53 27° S 01:07:55 82° E 01:11:52 10° NNE
STARLINK-1378 3.9 01:04:06 10° W 01:08:06 66° N 01:12:07 10° E
STARLINK-1264 4.0 01:07:26 30° S 01:08:33 37° SSE 01:12:01 10° E
ADEOS II 4.4 01:06:11 10° NE 01:08:57 14° E 01:11:43 10° ESE
Cosmos 2263 Rocket 2.4 01:03:27 10° NNW 01:09:05 69° ENE 01:14:38 10° SE
Timation 1 Rocket 4.3 01:04:36 10° NNW 01:10:37 81° WSW 01:16:19 11° SSE
Cosmos 1825 Rocket 3.5 01:08:39 25° S 01:11:07 89° E 01:15:31 10° N
STARLINK-29 2.9 01:07:59 10° WNW 01:11:12 86° NNE 01:14:24 10° ESE
STARLINK-1267 3.9 01:10:40 29° S 01:11:53 39° SSE 01:15:24 10° ENE
Cosmos 2297 Rocket 3.8 01:08:41 10° WNW 01:12:29 19° W 01:14:45 15° SW
STARLINK-1379 3.9 01:08:35 10° W 01:12:37 66° N 01:16:38 10° E
SL-4 R/B 2.3 01:07:49 10° WNW 01:12:39 66° SSW 01:17:21 10° ESE
STARLINK-28 3.0 01:11:33 32° SW 01:12:48 58° SSE 01:15:57 10° ENE
Cosmos 1656 4.5 01:09:18 12° WSW 01:14:14 46° NW 01:19:38 10° NNE
USA 229 DEB 3.9 01:07:10 10° NW 01:14:24 85° NE 01:22:01 10° SE
USA 229 3.9 01:07:17 10° NW 01:14:31 85° NE 01:22:07 10° SE
NOSS 3-1 (C) 4.0 01:07:55 10° NW 01:15:14 90° SW 01:23:46 10° SE
UNK 4.4 01:11:41 10° SE 01:16:08 52° ENE 01:20:36 10° N
STARLINK-1329 3.9 01:12:23 10° W 01:16:25 66° N 01:20:27 10° E
Cosmos 372 Rocket 4.0 01:11:52 10° NNW 01:16:59 68° WSW 01:20:47 18° S
STARLINK-1207 3.8 01:17:09 28° SSW 01:18:38 43° SSE 01:22:12 10° ENE
PSLV R/B 4.1 01:14:37 10° N 01:18:57 50° WNW 01:21:39 20° SW
STARLINK-1362 3.9 01:16:56 10° W 01:20:58 66° N 01:25:00 10° E
CZ-4C R/B 2.5 01:16:43 13° WSW 01:21:28 66° NW 01:27:48 10° NE
Cosmos 2360 4.2 01:17:45 20° SSW 01:21:48 85° WNW 01:27:34 10° NNE
STARLINK-1266 3.7 01:20:25 27° SSW 01:22:01 45° SSE 01:25:37 10° ENE
BREEZE-M DEB (TANK) 3.6 01:23:14 17° SE 01:23:14 17° SE 01:24:20 10° ESE
STARLINK-33 2.9 01:21:40 29° SW 01:23:00 60° SSE 01:26:04 10° ENE
NOSS 3-1 (A) 4.2 01:16:06 10° NW 01:23:22 77° NE 01:31:51 10° SE
STARLINK-1284 3.7 01:23:40 26° SSW 01:25:24 47° SSE 01:29:02 10° ENE
STARLINK-1373 3.9 01:21:28 10° W 01:25:30 67° N 01:29:31 10° E
STARLINK-1320 3.3 01:22:41 10° WNW 01:25:48 64° N 01:28:54 10° E
Alouette 2 Rocket 4.3 01:21:31 10° NNW 01:26:07 39° W 01:28:05 23° SSW
STARLINK-1322 3.3 01:23:03 10° WNW 01:26:09 64° N 01:29:16 10° E
STARLINK-26 3.1 01:24:28 23° SW 01:26:26 66° SSE 01:29:52 10° ENE
STARLINK-1324 3.3 01:23:21 10° WNW 01:26:28 64° N 01:29:35 10° E
BREEZE-M DEB (TANK) 1.0 01:23:53 10° W 01:26:44 64° S 01:29:01 10° E
STARLINK-1294 3.3 01:23:40 10° WNW 01:26:47 64° N 01:29:55 10° E
STARLINK-1261 3.3 01:24:03 10° WNW 01:27:10 64° N 01:30:16 10° E
STARLINK-1325 3.3 01:24:24 10° WNW 01:27:31 64° N 01:30:38 10° E
STARLINK-1333 3.3 01:24:46 10° WNW 01:27:53 64° N 01:30:59 10° E
STARLINK-1334 3.3 01:25:04 10° WNW 01:28:10 64° N 01:31:16 10° E
STARLINK-1326 3.3 01:25:23 10° WNW 01:28:29 64° N 01:31:36 10° E
STARLINK-1258 3.6 01:26:59 25° SW 01:28:50 49° SSE 01:32:28 10° ENE
STARLINK-1323 3.3 01:25:46 10° WNW 01:28:53 64° N 01:31:59 10° E
Cosmos 1869 4.5 01:25:21 10° N 01:28:59 38° ENE 01:32:37 10° SE
STARLINK-1349 3.3 01:26:04 10° WNW 01:29:10 64° N 01:32:17 10° E
STARLINK-1336 3.3 01:26:23 10° WNW 01:29:30 65° N 01:32:36 10° E
Cosmos 2150 Rocket 3.9 01:24:28 10° NNW 01:29:38 70° WSW 01:33:54 15° SSE
STARLINK-1331 3.3 01:26:46 10° WNW 01:29:53 65° N 01:33:00 10° E
STARLINK-1390 3.9 01:26:04 10° W 01:30:06 67° N 01:34:09 10° E
STARLINK-1344 3.3 01:27:04 10° WNW 01:30:11 65° N 01:33:17 10° E
STARLINK-1343 3.3 01:27:27 10° WNW 01:30:34 65° N 01:33:41 10° E
STARLINK-1346 3.3 01:27:43 10° WNW 01:30:52 65° N 01:34:00 10° E
STARLINK-1328 3.3 01:28:11 10° WNW 01:31:17 65° N 01:34:24 10° E
STARLINK-1354 3.3 01:28:27 10° WNW 01:31:34 65° N 01:34:41 10° E
STARLINK-1347 3.3 01:28:45 10° WNW 01:31:51 65° N 01:34:58 10° E
ATLAS CENTAUR R/B 4.4 01:30:30 10° NNW 01:32:12 12° N 01:33:50 10° NNE
STARLINK-1292 3.6 01:30:17 24° SW 01:32:15 51° SSE 01:35:55 10° ENE
STARLINK-1357 3.3 01:29:11 10° WNW 01:32:18 65° N 01:35:24 10° E
STARLINK-1335 3.3 01:29:28 10° WNW 01:32:34 66° N 01:35:42 10° E
STARLINK-1327 3.2 01:29:49 10° WNW 01:32:56 66° N 01:36:02 10° E
Cosmos 1814 Rocket 4.1 01:29:12 20° SSW 01:32:57 80° WNW 01:38:16 10° NNE
STARLINK-1340 3.2 01:30:07 10° WNW 01:33:13 66° N 01:36:20 10° E
STARLINK-1356 3.2 01:30:30 10° WNW 01:33:37 66° N 01:36:43 10° E
STARLINK-1345 3.2 01:30:48 10° WNW 01:33:55 66° N 01:37:02 10° E
Cosmos 2322 Rocket 3.6 01:29:42 12° SSE 01:34:05 29° ESE 01:38:50 10° NE
STARLINK-1355 3.2 01:31:10 10° WNW 01:34:17 66° N 01:37:24 10° E
STARLINK-1321 3.2 01:31:31 10° WNW 01:34:38 66° N 01:37:44 10° E
STARLINK-1358 3.2 01:31:54 10° WNW 01:35:01 66° N 01:38:08 10° E
SJ 16-02 3.5 01:33:27 10° WNW 01:35:03 12° W 01:36:30 10° WSW
STARLINK-1332 3.2 01:32:11 10° WNW 01:35:18 67° N 01:38:25 10° E
STARLINK-1348 3.2 01:32:31 10° WNW 01:35:38 67° N 01:38:46 10° E
STARLINK-1330 3.2 01:32:51 10° WNW 01:35:58 67° N 01:39:04 10° E
STARLINK-1365 3.9 01:32:03 10° WNW 01:36:07 69° N 01:40:11 10° E
STARLINK-1363 3.2 01:33:11 10° WNW 01:36:17 67° N 01:39:25 10° E
STARLINK-1337 3.2 01:33:33 10° WNW 01:36:41 67° N 01:39:47 10° E
STARLINK-1342 3.2 01:33:53 10° WNW 01:37:00 67° N 01:40:06 10° E
SL-19 R/B 4.4 01:31:39 10° NNE 01:37:17 81° WNW 01:41:48 18° SSW
STARLINK-1364 3.2 01:34:13 10° WNW 01:37:20 67° N 01:40:27 10° E
STARLINK-1376 3.2 01:34:33 10° WNW 01:37:40 67° N 01:40:47 10° E
STARLINK-1268 2.9 01:36:29 27° SW 01:37:55 55° SSE 01:40:57 10° ENE
Cosmos 2181 Rocket 4.3 01:31:38 10° NNW 01:37:56 57° W 01:42:49 17° SSW
STARLINK-1360 3.2 01:34:53 10° WNW 01:38:01 68° N 01:41:08 10° E
STARLINK-1361 3.2 01:35:14 10° WNW 01:38:21 68° N 01:41:28 10° E
STARLINK-1367 3.2 01:35:30 10° WNW 01:38:39 69° N 01:41:48 10° E
STARLINK-1366 3.2 01:35:53 10° WNW 01:39:00 68° N 01:42:07 10° E
STARLINK-1289 3.5 01:36:52 22° SW 01:39:06 56° SSE 01:42:47 10° ENE
Resurs 1-4 Rocket 2.5 01:35:18 10° NNE 01:40:33 57° E 01:44:54 15° S
STARLINK-1301 3.5 01:38:35 20° SW 01:41:03 60° SSE 01:44:52 10° ENE
Cosmos 1697 Rocket 3.4 01:36:19 13° SW 01:41:09 50° NW 01:46:41 10° NNE
STARLINK-66 2.8 01:39:32 19° WSW 01:41:43 78° SSE 01:44:56 10° ENE
Cosmos 1400 Rocket 3.1 01:38:06 10° NNW 01:42:09 53° W 01:44:46 20° SSW
Cosmos 2278 3.9 01:38:01 17° SW 01:42:27 68° WNW 01:48:08 10° NNE
STARLINK-1303 3.4 01:40:12 20° SW 01:42:34 59° SSE 01:46:17 10° ENE
Cosmos 841 Rocket 3.8 01:38:49 17° SW 01:42:44 59° WNW 01:47:53 10° NNE
STARLINK-1316 2.9 01:41:30 24° SW 01:43:10 60° SSE 01:46:15 10° ENE
Cosmos 1125 Rocket 3.4 01:38:02 10° NNW 01:43:17 83° WSW 01:48:30 10° SSE
DELTA 2 DEB (DPAF) 4.3 01:40:14 19° S 01:43:19 57° WSW 01:47:45 10° NNW
STARLINK-1257 2.9 01:42:21 24° SW 01:44:03 61° SSE 01:47:10 10° ENE
STARLINK-1256 2.9 01:43:18 23° SW 01:45:01 61° SSE 01:48:07 10° ENE
STARLINK-58 3.2 01:44:00 25° SW 01:45:30 48° SSE 01:48:36 10° ENE
STARLINK-1213 2.9 01:44:09 23° SW 01:45:54 62° SSE 01:48:59 10° ENE
STARLINK-1312 3.4 01:43:33 19° SW 01:46:03 61° SSE 01:49:47 10° ENE
STARLINK-1338 3.8 01:42:16 10° WNW 01:46:16 70° N 01:50:15 10° E
STARLINK-52 2.8 01:43:19 10° WNW 01:46:32 70° SSW 01:49:44 10° ESE
STARLINK-1263 2.8 01:45:01 22° SW 01:46:47 63° SSE 01:49:53 10° ENE
STARLINK-1259 2.8 01:45:54 22° SW 01:47:43 64° SSE 01:50:49 10° ENE
STARLINK-1265 2.9 01:46:15 22° SW 01:48:07 64° SSE 01:51:15 10° ENE
STARLINK-1285 2.8 01:46:45 22° SW 01:48:36 64° SSE 01:51:42 10° ENE
Cosmos 2227 Rocket 4.2 01:48:25 10° W 01:49:48 11° W 01:51:11 10° WSW
STARLINK-1296 2.8 01:48:30 21° SW 01:50:24 66° SSE 01:53:32 10° ENE
STARLINK-1260 2.8 01:49:21 20° SW 01:51:19 67° SSE 01:54:25 10° ENE
STARLINK-1318 2.8 01:50:13 20° WSW 01:52:12 68° SSE 01:55:19 10° ENE
STARLINK-75 2.9 01:50:26 16° WSW 01:52:57 82° SSE 01:56:11 10° ENE
STARLINK-1275 2.8 01:51:06 20° WSW 01:53:07 68° SSE 01:56:14 10° ENE
STARLINK-1309 2.8 01:51:58 19° WSW 01:54:00 69° SSE 01:57:07 10° ENE
STARLINK-1371 3.7 01:50:34 10° WNW 01:54:31 72° N 01:58:29 10° E
STARLINK-1282 2.8 01:52:49 19° WSW 01:54:54 70° SSE 01:58:01 10° ENE
Cosmos 2154 Rocket 4.4 01:49:51 11° S 01:55:45 62° E 02:01:54 10° NNE
STARLINK-1313 2.8 01:53:45 17° WSW 01:56:00 76° SSE 01:59:08 10° ENE
STARLINK-48 3.9 01:53:49 20° SSW 01:56:10 45° SSE 01:59:53 10° ENE
Meteor 1-27 4.2 01:50:46 10° NNW 01:56:18 67° W 02:01:18 13° S
STARLINK-1279 2.8 01:54:39 17° WSW 01:56:56 77° SSE 02:00:04 10° ENE
Cosmos 2227 4.5 01:51:33 10° NW 01:57:07 51° WSW 02:02:39 10° S
STARLINK-1298 2.8 01:55:23 18° WSW 01:57:33 72° SSE 02:00:41 10° ENE
STARLINK-1293 2.8 01:56:16 17° WSW 01:58:30 73° SSE 02:01:38 10° ENE
STARLINK-80 3.3 01:55:29 15° WSW 01:58:35 73° SSE 02:02:22 10° ENE
GEOS 3 Rocket 3.6 01:53:32 10° SE 01:58:46 84° SW 02:04:07 10° NW
STARLINK-1341 3.7 01:54:57 10° WNW 01:58:56 74° NNE 02:02:54 10° E
STARLINK-1283 3.5 01:55:37 13° WSW 01:59:10 75° SSE 02:03:18 10° ENE
STARLINK 1040 3.0 01:57:08 10° W 01:59:39 56° N 02:02:11 10° ENE
Iridium 2 3.7 01:56:06 10° N 01:59:54 85° E 02:03:12 13° S
STARLINK-1255 2.8 01:58:01 17° WSW 02:00:18 75° SSE 02:03:26 10° ENE
STARLINK-22 2.8 01:58:39 15° WSW 02:01:11 79° SSE 02:04:24 10° ENE
SL-16 R/B 2.6 01:55:28 11° S 02:01:25 66° WSW 02:07:36 10° NNW
Meteor 2-2 Rocket 4.4 01:55:39 10° NNW 02:01:44 86° ENE 02:07:43 10° SSE
STARLINK-1311 2.6 02:00:03 16° WSW 02:02:19 84° SSE 02:05:17 10° ENE
STARLINK-1297 3.2 02:00:20 15° WSW 02:03:15 72° SSE 02:06:52 10° ENE
STARLINK-1374 3.7 01:59:25 10° WNW 02:03:25 75° NNE 02:07:26 10° E
Cosmos 1844 Rocket 3.8 01:58:05 10° NNW 02:03:30 47° NE 02:08:52 10° SE
CRYOSAT 2 4.5 02:01:56 10° N 02:06:53 78° E 02:11:31 11° S
NOSS 2-1 (E) 3.8 02:04:58 17° S 02:07:11 40° SE 02:10:42 10° NE
STARLINK-1339 3.7 02:03:35 10° WNW 02:07:34 77° NNE 02:11:32 10° E
SL-16 R/B 2.5 02:04:36 14° S 02:09:23 60° ESE 02:14:59 10° NE
MOZ.5/SAFIR/RUBIN 5/SL-8 4.4 02:07:55 16° SSW 02:11:18 39° W 02:15:42 10° NNW
STARLINK-42 2.9 02:08:31 10° WSW 02:11:36 81° NNW 02:14:44 10° ENE
CZ-2D R/B 2.1 02:06:30 10° NNE 02:11:46 86° WNW 02:16:21 14° SSW
Cosmos 2221 2.5 02:07:45 10° NNW 02:12:06 70° W 02:16:17 11° S
STARLINK-1377 3.7 02:08:07 10° WNW 02:12:08 79° NNE 02:16:09 10° E
STARLINK-1029 3.0 02:11:18 17° SW 02:13:35 60° SSE 02:16:43 10° ENE
STARLINK-60 4.0 02:11:34 10° W 02:14:15 25° SW 02:16:55 10° SSE
STARLINK-34 2.8 02:11:58 15° WSW 02:14:25 73° SSE 02:17:29 10° ENE
STARLINK-41 2.8 02:12:05 10° WSW 02:15:09 80° NNW 02:18:12 10° ENE
FALCON 9 DEB 3.0 02:12:24 10° WNW 02:15:50 67° SSW 02:19:15 10° ESE
STARLINK-1310 4.4 02:13:35 16° SSW 02:16:26 37° SE 02:20:16 10° ENE
STARLINK-1353 3.6 02:12:27 10° WNW 02:16:29 81° NNE 02:20:30 10° ESE
ATLAS 5 CENTAUR R/B 4.2 02:15:54 10° NNW 02:16:54 12° N 02:18:06 10° NE
GP-B 3.9 02:12:52 10° NNW 02:17:01 39° W 02:20:25 14° SW
Nadezhda 3 Rocket 4.0 02:11:03 10° NNW 02:17:23 79° W 02:23:44 10° S
CZ-4C R/B 4.3 02:14:17 15° SSW 02:17:35 38° W 02:21:46 10° NNW
Cosmos 1315 Rocket 2.9 02:13:58 10° NNW 02:17:50 56° W 02:21:25 12° S
STARLINK-62 2.7 02:15:41 14° WSW 02:18:14 76° SSE 02:21:16 10° ENE
STARLINK-1272 3.1 02:15:30 10° WSW 02:18:58 86° SSE 02:22:32 10° ENE
Cosmos 1842 Rocket 3.9 02:15:00 10° NNW 02:19:20 50° W 02:23:13 12° SSW
USA 215 4.3 02:15:22 11° S 02:20:01 22° SW 02:24:54 10° WNW
STARLINK-1375 3.6 02:16:50 10° WNW 02:20:52 83° NNE 02:24:54 10° ESE
CBERS-1 4.4 02:16:14 10° NNE 02:21:21 62° ESE 02:26:25 10° S
STARLINK-1319 4.3 02:18:21 15° SSW 02:21:22 39° SSE 02:25:15 10° ENE
STARLINK-1307 3.3 02:21:09 10° WSW 02:24:52 89° SSE 02:28:37 10° ENE
STARLINK-1350 3.6 02:21:11 10° WNW 02:25:12 85° NNE 02:29:15 10° ESE
STARLINK-1277 4.2 02:23:08 14° SW 02:26:19 42° SSE 02:30:15 10° ENE
Shenzhou-11 Module 3.7 02:26:47 12° S 02:26:47 12° S 02:27:43 10° SSE
STARLINK-1290 3.3 02:24:40 10° WSW 02:28:24 89° NNW 02:32:08 10° ENE
STARLINK-1352 3.5 02:25:22 10° WNW 02:29:23 88° NNE 02:33:24 10° ESE
Cosmos 2058 3.0 02:27:00 11° S 02:31:07 84° E 02:35:22 10° NNE
STARLINK-1276 4.1 02:27:56 14° SW 02:31:18 45° SSE 02:35:16 10° ENE
IRIDIUM 103 4.4 02:26:20 10° S 02:31:33 86° E 02:36:49 10° N
Cosmos 2360 Rocket 3.1 02:26:20 10° S 02:31:34 42° ESE 02:36:51 10° NE
STARLINK-1368 3.5 02:30:03 10° WNW 02:34:05 90° SSW 02:38:07 10° ESE
STARLINK-1317 3.5 02:32:11 10° WSW 02:36:06 83° NNW 02:40:01 10° ENE
STARLINK-1305 4.1 02:32:42 13° SW 02:36:14 47° SSE 02:40:14 10° ENE
STARLINK-1306 4.0 02:33:14 12° SW 02:36:54 50° SSE 02:40:59 10° ENE
STARLINK-55 3.3 02:34:10 10° W 02:37:22 66° N 02:40:34 10° ENE
STARLINK-1369 3.5 02:34:30 10° WNW 02:38:31 87° SSW 02:42:34 10° ESE
STARLINK-1274 3.3 02:35:09 10° WSW 02:38:43 81° NNW 02:42:16 10° ENE
CZ-4B R/B 3.7 02:33:58 10° NNE 02:39:13 72° WNW 02:44:28 10° SSW
Cosmos 1980 Rocket 3.3 02:34:13 10° WSW 02:39:24 36° NW 02:44:38 10° NNE
STARLINK-43 3.8 02:36:50 10° W 02:40:30 64° N 02:44:10 10° E
STARLINK-1262 4.0 02:37:30 12° SW 02:41:14 50° SSE 02:45:15 10° ENE
STARLINK-1372 3.5 02:38:39 10° WNW 02:42:40 84° SSW 02:46:39 10° ESE
STARLINK-1291 3.4 02:39:24 10° WSW 02:43:09 80° NNW 02:46:54 10° ENE
Cosmos 2333 Rocket 4.2 02:41:07 10° SSE 02:45:24 23° ESE 02:49:42 10° NE
STARLINK-1300 3.9 02:42:17 11° SW 02:46:11 53° SSE 02:50:14 10° ENE
STARLINK-1264 3.5 02:42:43 10° W 02:46:29 78° NNW 02:50:14 10° ENE
STARLINK-29 3.9 02:44:22 10° W 02:47:06 26° SW 02:49:48 10° SSE
STARLINK-1378 3.5 02:43:23 10° WNW 02:47:25 81° SSW 02:51:27 10° ESE
Meteor 1-28 Rocket 3.7 02:43:55 10° SSE 02:47:37 64° ENE 02:51:20 10° N
STARLINK-28 3.4 02:45:45 10° W 02:48:56 62° N 02:52:07 10° ENE
ADEOS II 2.2 02:44:11 10° NNE 02:49:29 84° ESE 02:54:45 10° SSW
Cosmos 2219 Rocket 4.2 02:45:16 10° SSE 02:49:30 22° ESE 02:53:43 10° NE
STARLINK-1267 3.5 02:46:07 10° W 02:49:51 76° NNW 02:53:36 10° ENE
IRIDIUM 106 4.4 02:44:41 10° SSW 02:49:53 69° W 02:55:07 10° N
STARLINK-1295 3.9 02:47:05 10° SW 02:51:08 57° SSE 02:55:12 10° ENE
STARLINK-64 3.2 02:48:06 10° WSW 02:51:42 76° SSE 02:55:17 10° ENE
SL-4 R/B 3.4 02:48:01 10° W 02:51:50 24° SW 02:55:32 10° SSE
STARLINK-1379 3.5 02:47:53 10° WNW 02:51:55 78° SSW 02:55:57 10° ESE
IRS-1D 3.6 02:46:59 10° NNE 02:52:17 77° WNW 02:57:27 10° SSW
AQUA 4.2 02:47:45 10° N 02:52:23 53° WNW 02:57:01 10° SW
Cosmos 2263 Rocket 3.4 02:48:09 10° NW 02:52:30 23° WSW 02:56:48 10° SSW
IDEFIX/ARIANE 42P 4.1 02:48:01 10° NNE 02:52:48 34° E 02:57:33 10° SSE
Cosmos 1606 3.8 02:49:44 10° N 02:53:25 46° ENE 02:57:03 10° SSE
STARLINK-1329 3.5 02:51:43 10° WNW 02:55:45 75° SSW 02:59:47 10° ESE
STARLINK-1287 3.8 02:52:01 10° SW 02:56:06 60° SSE 03:00:12 10° ENE
STARLINK-1207 3.6 02:52:54 10° W 02:56:40 74° N 03:00:25 10° ENE
ERS-2 2.4 02:53:36 10° SSE 02:57:14 73° ENE 03:00:55 10° NNW
BREEZE-M R/B 2.4 02:54:04 10° W 02:57:55 51° SSW 03:00:26 10° ESE
ARIANE 5 R/B 2.9 02:53:39 10° NNE 02:58:40 64° ESE 03:03:36 10° S
NPP 4.3 02:53:40 10° N 02:58:47 45° WNW 03:03:52 10° SW
STARLINK-33 3.4 02:55:42 10° W 02:58:48 60° N 03:01:53 10° ENE
STARLINK-1266 3.6 02:56:19 10° W 03:00:04 72° N 03:03:50 10° ENE
Cosmos 2341 Rocket 4.1 02:53:48 10° SSW 03:00:10 83° W 03:06:32 10° N
STARLINK-1362 3.5 02:56:15 10° WNW 03:00:18 72° SSW 03:04:20 10° ESE
Cosmos 1892 3.1 02:57:06 10° SSW 03:00:47 48° WNW 03:04:28 10° N
STARLINK-1320 3.0 02:58:34 10° WNW 03:01:37 49° SSW 03:04:39 10° SE
STARLINK-1322 3.0 02:58:55 10° WNW 03:01:58 49° SSW 03:04:59 10° SE
STARLINK-1324 3.0 02:59:14 10° WNW 03:02:17 49° SSW 03:05:18 10° SE
STARLINK-1294 3.1 02:59:32 10° WNW 03:02:35 49° SSW 03:05:39 10° SE
STARLINK-1261 3.1 02:59:56 10° WNW 03:02:58 48° SSW 03:05:59 10° SE
NOSS 2-1 (C) 3.4 02:59:45 10° WSW 03:03:07 58° NW 03:06:56 10° NE
STARLINK-1325 3.1 03:00:17 10° WNW 03:03:19 48° SSW 03:06:20 10° SE
STARLINK-26 3.6 03:00:01 10° W 03:03:27 62° N 03:06:52 10° E
STARLINK-1284 3.6 02:59:44 10° W 03:03:29 71° N 03:07:15 10° ENE
CZ-2D R/B 4.4 02:59:32 10° NNE 03:03:41 49° E 03:07:53 10° S
STARLINK-1333 3.1 03:00:39 10° WNW 03:03:41 48° SSW 03:06:42 10° SE
STARLINK-1334 3.1 03:00:56 10° WNW 03:03:58 48° SSW 03:06:59 10° SE
STARLINK-1326 3.1 03:01:15 10° WNW 03:04:17 47° SSW 03:07:18 10° SE
STARLINK-1323 3.1 03:01:38 10° WNW 03:04:40 47° SSW 03:07:41 10° SE
STARLINK-1373 3.5 03:00:44 10° WNW 03:04:45 69° SSW 03:08:45 10° ESE
STARLINK-1349 3.1 03:01:57 10° WNW 03:04:58 47° SSW 03:07:59 10° SE
STARLINK-1299 3.7 03:00:45 10° WSW 03:05:00 73° SSE 03:09:15 10° ENE
STARLINK-1336 3.1 03:02:16 10° WNW 03:05:17 47° SSW 03:08:17 10° SE
IRS-1C 4.2 03:00:16 10° NNE 03:05:39 89° WNW 03:11:00 10° SSW
STARLINK-1331 3.1 03:02:39 10° WNW 03:05:40 46° SSW 03:08:40 10° SE
STARLINK-1344 3.1 03:02:58 10° WNW 03:05:58 46° SSW 03:08:58 10° SE
STARLINK-1302 3.7 03:01:55 10° WSW 03:06:02 67° SSE 03:10:10 10° ENE
STARLINK-1343 3.1 03:03:19 10° WNW 03:06:21 46° SSW 03:09:21 10° SE
STARLINK-1346 3.1 03:03:36 10° WNW 03:06:39 46° SSW 03:09:42 10° SE
STARLINK-1258 3.6 03:03:12 10° W 03:06:57 70° N 03:10:42 10° ENE
STARLINK-1328 3.1 03:04:03 10° WNW 03:07:04 45° SSW 03:10:04 10° SE
STARLINK-1354 3.1 03:04:21 10° WNW 03:07:22 45° SSW 03:10:21 10° SE
Cosmos 1844 3.8 03:01:31 10° NNW 03:07:22 83° WSW 03:13:10 10° SSE
STARLINK-1347 3.1 03:04:38 10° WNW 03:07:38 45° SSW 03:10:38 10° SE
NOSS 2-1 (D) 3.6 03:04:41 10° WSW 03:08:02 52° NW 03:11:51 10° NE
STARLINK-1357 3.2 03:05:04 10° WNW 03:08:04 45° SSW 03:11:05 10° SE
STARLINK-1335 3.2 03:05:21 10° WNW 03:08:21 45° SSW 03:11:21 10° SE
STARLINK-1327 3.2 03:05:42 10° WNW 03:08:42 44° SSW 03:11:41 10° SE
STARLINK-1340 3.2 03:05:59 10° WNW 03:09:00 44° SSW 03:11:59 10° SE
STARLINK-1356 3.2 03:06:22 10° WNW 03:09:23 44° SSW 03:12:22 10° SE
STARLINK-1390 3.5 03:05:24 10° WNW 03:09:26 66° SSW 03:13:27 10° ESE
STARLINK-1345 3.2 03:06:41 10° WNW 03:09:41 44° SSW 03:12:40 10° SE
STARLINK-1355 3.2 03:07:03 10° WNW 03:10:03 43° SSW 03:13:02 10° SE
STARLINK-1292 3.7 03:06:39 10° W 03:10:24 69° N 03:14:09 10° ENE
STARLINK-1273 3.7 03:06:52 10° WSW 03:10:59 70° SSE 03:15:08 10° ENE
CZ-4C R/B 4.1 03:06:06 10° WNW 03:11:10 31° NNW 03:17:08 10° NE
